sat.trackr.live / text

‹ back to catalog

STARLINK-5106

NORAD 54823 · 2022-177D

PAYLOAD ACTIVE UNKNOWN

§ Identity

Operator
Country
US
Launch date
2022-12-28
Launch site
AFETR
Launch vehicle
Mass (kg)
RCS (m²)

Purposes: comms

External: N2YO · Heavens-Above · Gunter

§ Orbital elements

Epoch: 2026-05-25T04:20:04.608096Z

Period
94.27 min
Inclination
43.0050°
Eccentricity
0.0001154
Mean motion
15.27578232 rev/d
Perigee alt
482.3 km
Apogee alt
483.8 km
Semi-major
6,861.2 km
B*
2.9099e-5
RAAN
63.9122°
Arg perigee
259.1793°
Mean anomaly
100.8929°
Rev number
18,862

§ Raw data

STARLINK-51061 54823U 22177D   26145.18060889  .00000539  00000+0  29099-4 0  99982 54823  43.0050  63.9122 0001154 259.1793 100.8929 15.27578232188622

JSON: /api/v1/satellites/54823 · /tle

For live sub-satellite position, see the globe view (requires WebGL).

§ Visibility from observer

Set your observer location to see the next 7 days of passes ≥ 10°. The values pass through the URL so the page stays shareable.

No JS? Fill the form by hand. The geolocation button needs JavaScript.